Mosby, MO

7:33 AM CDT on September 20, 2017 (GMT -0500)
Clay County Regional

Weather History for KGPH - January, 2014

Change the Weather History Date:

Thursday, January 30, 2014

  Actual Average (KMKC) Record (KMKC)
Temperature  
Mean Temperature 37 °F -  
Max Temperature 44 °F 38 °F 66 °F (2012)
Min Temperature 30 °F 23 °F 1 °F (2004)
Degree Days  
Heating Degree Days 28    
Moisture  
Dew Point 16 °F    
Average Humidity 44    
Maximum Humidity 60    
Minimum Humidity 34    
Precipitation  
Precipitation 0.00 in - - ()
Sea Level Pressure  
Sea Level Pressure 29.81 in    
Wind  
Wind Speed 13 mph (SW)    
Max Wind Speed 21 mph    
Max Gust Speed 32 mph    
Visibility 10 miles    
Events Rain    
Averages and records for this station are not official NWS values.
T = Trace of Precipitation, MM = Missing Value Source: NWS Daily Summary

Daily Weather History Graph

Daily Weather History Graph

Search for Another Location

Airport or City:

Trip Planner

Search our weather history database for the weather conditions in past years. The results will help you decide how hot, cold, wet, or windy it might be!

Date:

Astronomy

Jan. 30, 2014 Rise Set
Actual Time 7:26 AM CST 5:35 PM CST
Civil Twilight 6:57 AM CST 6:03 PM CST
Nautical Twilight 6:25 AM CST 6:36 PM CST
Astronomical Twilight 5:53 AM CST 7:07 PM CST
Moon 6:52 AM CST (1/30) 5:47 PM CST (1/30)
Length of Visible Light 11h 06m
Length of Day
10h 09m
Waning Crescent, 0% of the Moon is Illuminated
Jan 30
Waning Crescent
Jan 30
New
Feb 6
First Quarter
Feb 14
Full
Feb 22
Last Quarter

Hourly Weather History & Observations

Time (CST) Temp. Windchill Dew Point Humidity Pressure Visibility Wind Dir Wind Speed Gust Speed Precip Events Conditions
12:15 AM 33.8 °F 25.8 °F 12.2 °F 41% 29.86 in 10.0 mi South 10.4 mph 18.4 mph N/A   Clear
12:35 AM 33.8 °F 24.8 °F 12.2 °F 41% 29.85 in 10.0 mi South 12.7 mph 20.7 mph N/A   Clear
12:55 AM 33.8 °F 25.3 °F 12.2 °F 41% 29.84 in 10.0 mi South 11.5 mph 17.3 mph N/A   Clear
1:15 AM 33.8 °F 25.8 °F 12.2 °F 41% 29.82 in 10.0 mi South 10.4 mph 16.1 mph N/A   Unknown
1:35 AM 33.8 °F 23.9 °F 12.2 °F 41% 29.81 in 10.0 mi South 15.0 mph 23.0 mph N/A   Clear
1:55 AM 33.8 °F 25.8 °F 12.2 °F 41% 29.80 in 10.0 mi South 10.4 mph 19.6 mph N/A   Clear
2:15 AM 33.8 °F 25.3 °F 12.2 °F 41% 29.79 in 10.0 mi South 11.5 mph 18.4 mph N/A   Clear
2:35 AM 33.8 °F 24.8 °F 12.2 °F 41% 29.80 in 10.0 mi South 12.7 mph 20.7 mph N/A   Clear
2:55 AM 33.8 °F 26.4 °F 12.2 °F 41% 29.80 in 10.0 mi South 9.2 mph 18.4 mph N/A   Clear
3:15 AM 33.8 °F 24.3 °F 10.4 °F 38% 29.79 in 10.0 mi South 13.8 mph - N/A   Clear
3:35 AM 33.8 °F 24.8 °F 10.4 °F 38% 29.76 in 10.0 mi South 12.7 mph 19.6 mph N/A   Clear
3:55 AM 33.8 °F 24.3 °F 10.4 °F 38% 29.76 in 10.0 mi South 13.8 mph 20.7 mph N/A   Clear
4:15 AM 33.8 °F 23.9 °F 10.4 °F 38% 29.74 in 10.0 mi South 15.0 mph 21.9 mph N/A   Clear
4:35 AM 33.8 °F 24.3 °F 10.4 °F 38% 29.73 in 10.0 mi South 13.8 mph 24.2 mph N/A   Clear
4:55 AM 35.6 °F 26.2 °F 10.4 °F 35% 29.72 in 10.0 mi South 15.0 mph 24.2 mph N/A   Clear
5:15 AM 35.6 °F 25.5 °F 10.4 °F 35% 29.68 in 10.0 mi South 17.3 mph 23.0 mph N/A   Clear
5:35 AM 33.8 °F 23.2 °F 10.4 °F 38% 29.69 in 10.0 mi South 17.3 mph 24.2 mph N/A   Clear
5:55 AM 35.6 °F 26.2 °F 10.4 °F 35% 29.68 in 10.0 mi South 15.0 mph 26.5 mph N/A   Clear
6:15 AM 35.6 °F 24.8 °F 10.4 °F 35% 29.68 in 10.0 mi South 19.6 mph 28.8 mph N/A   Clear
6:35 AM 35.6 °F 25.5 °F 10.4 °F 35% 29.68 in 10.0 mi South 17.3 mph 24.2 mph N/A   Clear
6:55 AM 35.6 °F 24.8 °F 10.4 °F 35% 29.67 in 10.0 mi South 19.6 mph 28.8 mph N/A   Clear
7:15 AM 35.6 °F 25.5 °F 10.4 °F 35% 29.68 in 10.0 mi South 17.3 mph 23.0 mph N/A   Clear
7:35 AM 35.6 °F 26.6 °F 12.2 °F 38% 29.69 in 10.0 mi SSW 13.8 mph 21.9 mph N/A   Unknown
7:55 AM 35.6 °F 26.6 °F 12.2 °F 38% 29.70 in 10.0 mi SSW 13.8 mph 19.6 mph N/A   Clear
8:15 AM 35.6 °F 25.2 °F 12.2 °F 38% 29.67 in 10.0 mi South 18.4 mph 26.5 mph N/A   Unknown
8:35 AM 35.6 °F 25.5 °F 12.2 °F 38% 29.68 in 10.0 mi South 17.3 mph 27.6 mph N/A   Unknown
8:55 AM 35.6 °F 26.2 °F 12.2 °F 38% 29.71 in 10.0 mi SSW 15.0 mph 25.3 mph N/A   Unknown
9:15 AM 35.6 °F 27.1 °F 12.2 °F 38% 29.72 in 10.0 mi SSW 12.7 mph 32.2 mph N/A   Unknown
9:35 AM 35.6 °F 27.1 °F 12.2 °F 38% 29.72 in 10.0 mi SSW 12.7 mph 25.3 mph N/A   Clear
9:55 AM 35.6 °F 24.5 °F 12.2 °F 38% 29.72 in 10.0 mi SSW 20.7 mph 25.3 mph N/A   Unknown
10:15 AM 35.6 °F 25.5 °F 14.0 °F 41% 29.72 in 10.0 mi SSW 17.3 mph 26.5 mph N/A   Unknown
10:35 AM 35.6 °F 24.5 °F 14.0 °F 41% 29.73 in 10.0 mi SSW 20.7 mph 28.8 mph N/A   Unknown
10:55 AM 37.4 °F 27.5 °F 14.0 °F 38% 29.73 in 10.0 mi SW 18.4 mph 23.0 mph N/A Rain Light Rain
11:15 AM 35.6 °F 25.9 °F 17.6 °F 48% 29.74 in 10.0 mi SW 16.1 mph 25.3 mph N/A   Light Drizzle
11:35 AM 37.4 °F 28.5 °F 15.8 °F 41% 29.74 in 10.0 mi SW 15.0 mph 21.9 mph N/A   Light Drizzle
11:55 AM 37.4 °F 27.8 °F 17.6 °F 45% 29.73 in 10.0 mi SW 17.3 mph 24.2 mph N/A   Mostly Cloudy
12:15 PM 37.4 °F 29.3 °F 15.8 °F 41% 29.73 in 10.0 mi SW 12.7 mph 19.6 mph N/A   Mostly Cloudy
12:35 PM 39.2 °F 31.6 °F 15.8 °F 39% 29.73 in 10.0 mi WSW 12.7 mph 19.6 mph N/A   Scattered Clouds
12:55 PM 41.0 °F 33.9 °F 15.8 °F 36% 29.73 in 10.0 mi SW 12.7 mph 18.4 mph N/A   Scattered Clouds
1:15 PM 42.8 °F 35.1 °F 15.8 °F 34% 29.73 in 10.0 mi SW 16.1 mph 23.0 mph N/A   Unknown
1:35 PM 42.8 °F 36.2 °F 15.8 °F 34% 29.74 in 10.0 mi WSW 12.7 mph 21.9 mph N/A   Scattered Clouds
1:55 PM 42.8 °F 37.5 °F 17.6 °F 36% 29.74 in 10.0 mi WSW 9.2 mph 17.3 mph N/A   Scattered Clouds
2:15 PM 44.6 °F 38.4 °F 17.6 °F 34% 29.75 in 10.0 mi WSW 12.7 mph 17.3 mph N/A   Mostly Cloudy
2:35 PM 44.6 °F 39.7 °F 17.6 °F 34% 29.76 in 10.0 mi WSW 9.2 mph 17.3 mph N/A   Scattered Clouds
2:55 PM 44.6 °F 40.2 °F 17.6 °F 34% 29.77 in 10.0 mi West 8.1 mph 11.5 mph N/A   Clear
3:15 PM 44.6 °F 39.2 °F 17.6 °F 34% 29.77 in 10.0 mi West 10.4 mph 23.0 mph N/A   Scattered Clouds
3:35 PM 44.6 °F 38.1 °F 17.6 °F 34% 29.79 in 10.0 mi WNW 13.8 mph - N/A   Unknown
3:55 PM 44.6 °F 39.2 °F 17.6 °F 34% 29.80 in 10.0 mi WNW 10.4 mph - N/A   Clear
4:15 PM 44.6 °F 39.7 °F 17.6 °F 34% 29.81 in 10.0 mi WNW 9.2 mph - N/A   Clear
4:35 PM 42.8 °F 38.0 °F 24.8 °F 49% 29.82 in 10.0 mi NNW 8.1 mph 17.3 mph N/A   Clear
4:55 PM 41.0 °F 34.7 °F 24.8 °F 53% 29.83 in 10.0 mi NW 10.4 mph - N/A   Clear
5:15 PM 39.2 °F 34.2 °F 24.8 °F 56% 29.84 in 10.0 mi NW 6.9 mph - N/A   Clear
5:35 PM 39.2 °F 33.6 °F 24.8 °F 56% 29.84 in 10.0 mi NNW 8.1 mph - N/A   Clear
5:55 PM 37.4 °F 28.9 °F 23.0 °F 56% 29.87 in 10.0 mi NNW 13.8 mph - N/A   Clear
6:15 PM 35.6 °F 27.1 °F 21.2 °F 56% 29.88 in 10.0 mi NNW 12.7 mph - N/A   Clear
6:35 PM 35.6 °F 27.1 °F 21.2 °F 56% 29.90 in 10.0 mi NNW 12.7 mph - N/A   Unknown
6:55 PM 35.6 °F 27.1 °F 21.2 °F 56% 29.91 in 10.0 mi North 12.7 mph - N/A   Clear
7:15 PM 33.8 °F 28.6 °F 21.2 °F 60% 29.91 in 10.0 mi North 5.8 mph - N/A   Clear
7:35 PM 33.8 °F 27.7 °F 21.2 °F 60% 29.93 in 10.0 mi NNW 6.9 mph - N/A   Clear
7:55 PM 33.8 °F 26.4 °F 21.2 °F 60% 29.94 in 10.0 mi NNW 9.2 mph - N/A   Clear
8:15 PM 33.8 °F 25.3 °F 19.4 °F 56% 29.95 in 10.0 mi NNW 11.5 mph - N/A   Clear
8:35 PM 32.0 °F 24.2 °F 19.4 °F 60% 29.97 in 10.0 mi North 9.2 mph - N/A   Clear
8:55 PM 32.0 °F 23.0 °F 19.4 °F 60% 29.97 in 10.0 mi North 11.5 mph - N/A   Clear
9:15 PM 32.0 °F 22.5 °F 19.4 °F 60% 29.97 in 10.0 mi North 12.7 mph 17.3 mph N/A   Clear
9:35 PM 32.0 °F 23.6 °F 19.4 °F 60% 29.98 in 10.0 mi North 10.4 mph - N/A   Clear
9:55 PM 32.0 °F 23.6 °F 19.4 °F 60% 29.98 in 10.0 mi North 10.4 mph - N/A   Scattered Clouds
10:15 PM 32.0 °F 20.8 °F 17.6 °F 55% 29.99 in 10.0 mi North 17.3 mph - N/A   Overcast
10:35 PM 32.0 °F 22.5 °F 17.6 °F 55% 29.99 in 10.0 mi North 12.7 mph 17.3 mph N/A   Overcast
10:55 PM 30.2 °F 19.3 °F 17.6 °F 60% 29.99 in 10.0 mi North 15.0 mph 19.6 mph N/A   Overcast
11:15 PM 30.2 °F 20.8 °F 17.6 °F 60% 29.99 in 10.0 mi North 11.5 mph - N/A   Overcast
11:35 PM 30.2 °F 20.8 °F 17.6 °F 60% 30.01 in 10.0 mi North 11.5 mph - N/A   Overcast
11:55 PM 30.2 °F 20.8 °F 17.6 °F 60% 30.02 in 10.0 mi North 11.5 mph - N/A   Overcast